• In Romania
  • List of Countries
  • For 7 days
  • Water Temperature
  • Satellite Maps
  • Weather Map
  • Weather Widgets
  • user-avatar
    Login

    Hourly Weather Panschina

    Today, 23 April, Monday

    Time Temperature Precipitation Wind Pressure Humidity
    00:00 +1°C° 0 mm 2 mps 742 mmHg 78%
    01:00 +1°C° 0 mm 1 mps 742 mmHg 80%
    02:00 0°C° 0 mm 1 mps 743 mmHg 82%
    03:00 0°C° 0 mm 1 mps 743 mmHg 82%
    04:00 0°C° 0 mm 1 mps 743 mmHg 82%
    05:00 0°C° 0 mm 1 mps 743 mmHg 82%
    06:00 +1°C° 0 mm 1 mps 744 mmHg 71%
    07:00 +3°C° 0 mm 1 mps 744 mmHg 61%
    08:00 +4°C° 0 mm 2 mps 744 mmHg 50%
    09:00 +5°C° 0 mm 2 mps 744 mmHg 46%
    10:00 +8°C° 0 mm 1 mps 744 mmHg 41%
    11:00 +9°C° 0 mm 1 mps 744 mmHg 36%
    12:00 +9°C° 0 mm 1 mps 744 mmHg 34%
    13:00 +9°C° 0 mm 2 mps 744 mmHg 33%
    14:00 +10°C° 0 mm 2 mps 744 mmHg 32%
    15:00 +10°C° 0 mm 1 mps 743 mmHg 33%
    16:00 +10°C° 0 mm 1 mps 743 mmHg 34%
    17:00 +10°C° 0 mm 1 mps 743 mmHg 35%
    18:00 +8°C° 0 mm 1 mps 743 mmHg 41%
    19:00 +6°C° 0 mm 1 mps 743 mmHg 46%
    20:00 +5°C° 0 mm 1 mps 743 mmHg 52%
    21:00 +4°C° 0 mm 1 mps 743 mmHg 54%
    22:00 +4°C° 0 mm 1 mps 742 mmHg 57%
    23:00 +3°C° 0 mm 1 mps 742 mmHg 59%

    Tomorrow, 24 April, Tuesday

    Time Temperature Precipitation Wind Pressure Humidity
    00:00 +3°C° 0 mm 1 mps 742 mmHg 61%
    01:00 +2°C° 0 mm 2 mps 742 mmHg 62%
    02:00 +1°C° 0 mm 2 mps 742 mmHg 64%
    03:00 +2°C° 0 mm 2 mps 741 mmHg 64%
    04:00 +2°C° 0 mm 2 mps 741 mmHg 65%
    05:00 +2°C° 0 mm 2 mps 740 mmHg 65%
    06:00 +3°C° 0 mm 3 mps 740 mmHg 62%
    07:00 +4°C° 0 mm 3 mps 740 mmHg 59%
    08:00 +7°C° 0 mm 3 mps 739 mmHg 57%
    09:00 +8°C° 0 mm 3 mps 739 mmHg 56%
    10:00 +8°C° 0 mm 4 mps 739 mmHg 55%
    11:00 +10°C° 0 mm 4 mps 738 mmHg 54%
    12:00 +10°C° 0.2 mm 4 mps 738 mmHg 58%
    13:00 +11°C° 0.2 mm 4 mps 738 mmHg 62%
    14:00 +11°C° 0.2 mm 4 mps 737 mmHg 66%
    15:00 +10°C° 0.3 mm 3 mps 737 mmHg 72%
    16:00 +10°C° 0.3 mm 3 mps 737 mmHg 78%
    17:00 +9°C° 0.3 mm 2 mps 736 mmHg 84%
    18:00 +9°C° 0.1 mm 2 mps 736 mmHg 87%
    19:00 +8°C° 0.1 mm 2 mps 736 mmHg 91%
    20:00 +7°C° 0.1 mm 2 mps 736 mmHg 95%
    21:00 +7°C° 0.1 mm 2 mps 736 mmHg 94%
    22:00 +7°C° 0.1 mm 2 mps 737 mmHg 94%
    23:00 +7°C° 0.1 mm 2 mps 737 mmHg 93%

    Day after tomorrow, 25 April, Wednesday

    Time Temperature Precipitation Wind Pressure Humidity
    00:00 +6°C° 0 mm 2 mps 737 mmHg 93%
    01:00 +6°C° 0 mm 2 mps 737 mmHg 93%
    02:00 +6°C° 0 mm 2 mps 737 mmHg 93%
    03:00 +5°C° 0.1 mm 2 mps 736 mmHg 93%
    04:00 +5°C° 0.1 mm 2 mps 736 mmHg 93%
    05:00 +5°C° 0.1 mm 2 mps 736 mmHg 93%
    06:00 +5°C° 0.1 mm 3 mps 736 mmHg 92%
    07:00 +5°C° 0.1 mm 3 mps 736 mmHg 91%
    08:00 +7°C° 0.1 mm 3 mps 736 mmHg 89%
    09:00 +7°C° 0.1 mm 4 mps 736 mmHg 87%
    10:00 +8°C° 0.1 mm 4 mps 735 mmHg 85%
    11:00 +8°C° 0.1 mm 4 mps 735 mmHg 83%
    12:00 +10°C° 0.1 mm 4 mps 735 mmHg 76%
    13:00 +10°C° 0.1 mm 5 mps 735 mmHg 68%
    14:00 +12°C° 0.1 mm 5 mps 735 mmHg 60%
    15:00 +12°C° 0 mm 5 mps 735 mmHg 59%
    16:00 +12°C° 0 mm 5 mps 735 mmHg 57%
    17:00 +12°C° 0 mm 4 mps 735 mmHg 56%
    18:00 +10°C° 0 mm 3 mps 735 mmHg 62%
    19:00 +9°C° 0 mm 3 mps 735 mmHg 68%
    20:00 +7°C° 0 mm 2 mps 735 mmHg 74%
    21:00 +7°C° 0 mm 2 mps 735 mmHg 76%
    22:00 +7°C° 0 mm 2 mps 735 mmHg 78%
    23:00 +7°C° 0 mm 2 mps 735 mmHg 80%

    26 April, Thursday

    Time Temperature Precipitation Wind Pressure Humidity
    00:00 +6°C° 0.2 mm 2 mps 734 mmHg 83%
    01:00 +6°C° 0.2 mm 2 mps 734 mmHg 87%
    02:00 +6°C° 0.2 mm 2 mps 734 mmHg 90%
    03:00 +5°C° 0 mm 2 mps 734 mmHg 91%
    04:00 +5°C° 0 mm 2 mps 734 mmHg 92%
    05:00 +4°C° 0 mm 2 mps 734 mmHg 93%
    06:00 +5°C° 0 mm 2 mps 735 mmHg 84%
    07:00 +7°C° 0 mm 3 mps 735 mmHg 76%
    08:00 +8°C° 0 mm 3 mps 735 mmHg 67%
    09:00 +10°C° 0 mm 4 mps 736 mmHg 61%
    10:00 +11°C° 0 mm 4 mps 736 mmHg 56%
    11:00 +12°C° 0 mm 5 mps 736 mmHg 50%
    12:00 +12°C° 0.1 mm 5 mps 736 mmHg 48%
    13:00 +13°C° 0.1 mm 5 mps 736 mmHg 46%
    14:00 +14°C° 0.1 mm 5 mps 736 mmHg 44%
    15:00 +13°C° 0.2 mm 5 mps 737 mmHg 46%
    16:00 +13°C° 0.2 mm 5 mps 737 mmHg 48%
    17:00 +12°C° 0.2 mm 4 mps 737 mmHg 50%
    18:00 +11°C° 0.1 mm 4 mps 737 mmHg 56%
    19:00 +10°C° 0.1 mm 3 mps 738 mmHg 61%
    20:00 +8°C° 0.1 mm 3 mps 738 mmHg 67%
    21:00 +8°C° 0 mm 3 mps 739 mmHg 70%
    22:00 +8°C° 0 mm 3 mps 739 mmHg 73%
    23:00 +8°C° 0 mm 3 mps 739 mmHg 76%

    27 April, Friday

    Time Temperature Precipitation Wind Pressure Humidity
    00:00 +7°C° 0 mm 3 mps 739 mmHg 80%
    01:00 +5°C° 0 mm 3 mps 740 mmHg 84%
    02:00 +4°C° 0 mm 3 mps 740 mmHg 88%
    03:00 +5°C° 0 mm 2 mps 740 mmHg 90%
    04:00 +4°C° 0 mm 2 mps 740 mmHg 92%
    05:00 +4°C° 0 mm 2 mps 740 mmHg 94%
    06:00 +5°C° 0 mm 2 mps 740 mmHg 84%
    07:00 +7°C° 0 mm 2 mps 741 mmHg 74%
    08:00 +9°C° 0 mm 2 mps 741 mmHg 64%
    09:00 +11°C° 0 mm 3 mps 741 mmHg 57%
    10:00 +12°C° 0 mm 3 mps 741 mmHg 49%
    11:00 +14°C° 0 mm 4 mps 740 mmHg 42%
    12:00 +14°C° 0.1 mm 4 mps 740 mmHg 44%
    13:00 +14°C° 0.1 mm 4 mps 739 mmHg 46%
    14:00 +14°C° 0.1 mm 4 mps 739 mmHg 48%
    15:00 +13°C° 2.1 mm 4 mps 739 mmHg 61%
    16:00 +11°C° 2.1 mm 3 mps 738 mmHg 74%
    17:00 +9°C° 2.1 mm 3 mps 738 mmHg 87%
    18:00 +9°C° 0.1 mm 3 mps 738 mmHg 87%
    19:00 +8°C° 0.1 mm 3 mps 738 mmHg 86%
    20:00 +7°C° 0.1 mm 3 mps 739 mmHg 86%
    21:00 +7°C° 0 mm 3 mps 739 mmHg 86%
    22:00 +5°C° 0 mm 4 mps 739 mmHg 87%
    23:00 +5°C° 0 mm 4 mps 740 mmHg 87%

    28 April, Saturday

    Time Temperature Precipitation Wind Pressure Humidity
    00:00 +4°C° 0 mm 4 mps 740 mmHg 88%
    01:00 +4°C° 0 mm 4 mps 741 mmHg 89%
    02:00 +4°C° 0 mm 4 mps 741 mmHg 90%
    03:00 +3°C° 0 mm 4 mps 742 mmHg 90%
    04:00 +3°C° 0 mm 4 mps 742 mmHg 89%
    05:00 +3°C° 0 mm 4 mps 742 mmHg 89%
    06:00 +4°C° 0 mm 4 mps 743 mmHg 85%
    07:00 +5°C° 0 mm 4 mps 743 mmHg 81%
    08:00 +5°C° 0 mm 4 mps 744 mmHg 77%
    09:00 +7°C° 0 mm 4 mps 744 mmHg 69%
    10:00 +9°C° 0 mm 5 mps 744 mmHg 61%
    11:00 +10°C° 0 mm 5 mps 745 mmHg 53%
    12:00 +12°C° 0.1 mm 5 mps 745 mmHg 49%
    13:00 +13°C° 0.1 mm 5 mps 745 mmHg 45%
    14:00 +13°C° 0.1 mm 5 mps 745 mmHg 42%
    15:00 +13°C° 0 mm 4 mps 745 mmHg 44%
    16:00 +13°C° 0 mm 3 mps 745 mmHg 46%
    17:00 +13°C° 0 mm 3 mps 745 mmHg 47%
    18:00 +12°C° 0.1 mm 2 mps 745 mmHg 55%
    19:00 +10°C° 0.1 mm 2 mps 745 mmHg 62%
    20:00 +8°C° 0.1 mm 2 mps 745 mmHg 70%
    21:00 +7°C° 0.1 mm 2 mps 746 mmHg 75%
    22:00 +6°C° 0.1 mm 2 mps 746 mmHg 80%
    23:00 +6°C° 0.1 mm 2 mps 746 mmHg 84%
    Show more